This demonstration page uses our WeatherBlox Daily Observations layout. Learn more.

38.88101, -77.10428

Hourly Observations for March 21, 2016

Temp ( °F °C ) Dew Point ( °F °C ) Humidity (%) Winds ( mph kmh ) Pressure ( in mb ) Visibility ( mi km ) Precip ( " mm )
12:52 am 00:52 Cloudy 38 3.3 32 0 79 79 NNE 6 9 29.97 1015 10 16.09344 0.001 0.001
1:52 am 01:52 Mostly Cloudy 37 2.8 31 -0.6 79 79 N 6 9 29.94 1014 10 16.09344 0 0
2:52 am 02:52 Cloudy 37 2.8 31 -0.6 79 79 NNW 3 6 29.94 1014 10 16.09344 0 0
3:52 am 03:52 Cloudy 38 3.3 31 -0.6 76 76 NNW 6 9 29.91 1013 10 16.09344 0 0
4:52 am 04:52 Cloudy 38 3.3 29 -1.7 70 70 NW 3 6 29.91 1013 10 16.09344 0 0
5:52 am 05:52 Cloudy 38 3.3 30 -1.1 73 73 W 3 6 29.91 1013 10 16.09344 0 0
6:52 am 06:52 Partly Cloudy 39 3.9 29 -1.7 67 67 NW 14 22 29.94 1014 10 16.09344 0 0
7:52 am 07:52 Cloudy 40 4.4 29 -1.7 65 65 NNW 8 13 29.97 1015 10 16.09344 0 0
8:52 am 08:52 Partly Cloudy 41 5 28 -2.2 60 60 NW 12 19 29.97 1015 10 16.09344 0 0
9:52 am 09:52 Mostly Sunny 43 6.1 23 -5 45 45 NW 17 28 29.97 1015 10 16.09344 0 0
10:52 am 10:52 Mostly Sunny 46 7.8 24 -4.4 42 42 NW 17 28 30 1016 10 16.09344 0 0
11:52 am 11:52 Mostly Sunny 46 7.8 18 -7.8 32 32 NNW 23 37 30 1016 10 16.09344 0 0
12:52 pm 12:52 Mostly Sunny 48 8.9 20 -6.7 33 33 WNW 17 28 30 1016 10 16.09344 0 0
1:52 pm 13:52 Partly Cloudy 50 10 22 -5.6 33 33 NNW 16 26 29.97 1015 10 16.09344 0 0
2:52 pm 14:52 Partly Cloudy 51 10.6 20 -6.7 29 29 WNW 20 31 29.97 1015 10 16.09344 0 0
3:52 pm 15:52 Partly Cloudy 52 11.1 20 -6.7 28 28 WNW 10 17 29.97 1015 10 16.09344 0 0
4:52 pm 16:52 Partly Cloudy 52 11.1 18 -7.8 26 26 WNW 17 28 29.94 1014 10 16.09344 0 0
5:52 pm 17:52 Partly Cloudy 52 11.1 18 -7.8 26 26 WNW 13 20 29.97 1015 10 16.09344 0 0
6:52 pm 18:52 Mostly Sunny 50 10 17 -8.3 27 27 NW 18 30 30.03 1017 10 16.09344 0 0
7:52 pm 19:52 Mostly Clear 47 8.3 18 -7.8 31 31 NNW 16 26 30.06 1018 10 16.09344 0 0
8:52 pm 20:52 Mostly Clear 46 7.8 18 -7.8 32 32 WNW 10 17 30.12 1020 10 16.09344 0 0
9:52 pm 21:52 Clear 45 7.2 19 -7.2 35 35 WNW 7 11 30.12 1020 10 16.09344 0 0
10:52 pm 22:52 Mostly Clear 44 6.7 19 -7.2 37 37 W 3 6 30.15 1021 10 16.09344 0 0
11:52 pm 23:52 Mostly Clear 43 6.1 21 -6.1 42 42 SW 3 6 30.15 1021 10 16.09344 0 0

Powered by AerisWeather